RH
16 16 38 23 14 30 44 31 13 7 6 6 7 12 25 17 18 20 20 21 16 22 19 13 8 9 6 2 1 1 1 2 3 5 5 3 2 2 1 1 1 1 1
26 14 35 44 21 16 30 21 13 7 6 6 6 10 17 14 14 20 21 22 18 23 19 20 9 7 6 2 1 1 2 2 4 5 5 3 2 2 1 1 1 1 1
76 22 17 46 43 18 22 24 17 10 5 6 6 7 6 8 11 18 22 22 18 28 18 19 10 7 7 2 1 1 2 2 4 5 6 4 2 2 1 1 1 1 1
85 60 20 36 52 39 17 23 20 12 6 6 6 6 6 7 9 14 21 22 19 29 26 12 10 6 7 2 1 1 2 3 4 6 6 5 3 2 1 1 1 1 1
94 89 28 24 47 50 33 24 25 15 9 6 6 6 6 7 8 11 19 22 20 29 30 16 8 8 8 2 1 1 2 3 4 6 6 5 4 2 1 1 1 1 1
83 84 52 42 28 50 48 32 31 25 12 7 6 6 6 7 8 10 15 22 21 27 30 23 8 10 10 3 1 1 2 4 4 6 6 6 5 3 2 1 1 1 1
86 81 90 50 24 42 53 38 32 30 21 11 7 6 6 7 8 9 12 22 23 24 28 28 9 9 9 4 2 1 2 4 5 6 7 6 6 4 2 1 1 1 1
91 91 62 89 31 37 55 47 28 28 28 18 12 8 6 7 8 8 10 19 24 22 25 33 13 9 10 6 2 1 2 3 5 6 7 7 7 6 3 2 1 1 1
83 94 80 31 53 42 63 63 28 22 24 22 15 12 7 6 7 8 9 14 24 23 23 33 26 9 9 8 3 2 1 3 4 6 7 7 7 7 5 3 2 1 1
85 96 92 91 50 37 44 35 48 24 16 17 20 14 9 7 7 8 8 10 21 25 23 28 34 23 10 7 5 2 1 2 4 5 7 8 8 8 7 4 2 1 1
93 94 96 93 90 79 57 16 16 25 18 13 14 12 10 8 7 8 8 9 14 25 25 26 30 34 21 11 8 3 2 1 2 4 6 8 8 8 8 6 4 2 1
73 75 85 97 93 90 77 63 22 14 13 12 12 12 10 9 8 8 8 9 10 21 26 26 28 32 35 23 12 9 2 2 2 2 5 7 9 9 8 7 5 4 2
59 60 52 72 83 95 86 64 65 23 13 13 11 9 10 9 8 8 7 8 10 15 26 27 28 26 30 36 31 13 10 2 2 2 3 6 7 10 10 8 7 5 4
60 58 64 54 46 79 90 91 74 61 58 12 13 12 10 8 8 8 8 7 9 11 20 28 29 29 26 34 37 34 18 12 2 2 2 4 6 8 10 10 8 7 5
73 54 58 60 42 48 76 82 89 83 75 61 18 11 13 12 11 10 8 8 8 10 17 29 30 31 30 28 31 33 35 25 12 4 2 2 4 6 8 10 10 9 7
87 66 60 69 64 37 58 71 92 86 79 75 62 31 14 11 13 13 12 9 7 8 12 27 31 31 32 30 30 34 39 39 31 13 5 2 2 4 6 8 10 11 9
95 94 91 87 67 53 42 58 74 94 82 78 73 70 50 23 16 19 14 10 8 7 10 24 32 33 34 33 31 31 37 42 44 39 22 8 2 2 3 5 7 10 11
90 93 97 95 81 37 59 96 80 91 94 88 81 80 68 54 30 25 41 26 9 8 9 17 32 35 36 36 36 33 33 36 39 46 46 42 26 7 2 2 4 6 8
86 91 68 69 95 94 62 36 85 94 88 86 93 93 92 72 56 46 49 18 11 12 12 12 25 36 38 40 40 40 38 36 35 36 45 50 50 49 37 9 2 3 5
79 63 56 70 80 96 96 75 50 77 97 93 81 83 90 92 79 55 48 24 14 15 18 14 15 31 38 40 41 43 45 45 45 43 37 40 50 53 52 52 45 14 3
68 75 75 63 63 70 96 90 93 94 71 71 78 91 86 88 76 90 71 53 41 18 20 24 16 19 38 41 42 43 44 47 48 52 49 46 42 46 56 56 53 44 38
37 58 62 68 60 73 92 95 94 98 89 82 97 98 93 100 82 75 78 91 89 58 36 18 18 16 19 36 41 43 45 47 50 53 53 52 50 48 51 52 50 61 59
20 30 41 54 63 61 80 95 95 90 86 96 95 95 97 95 90 78 75 75 78 82 78 59 37 22 18 20 30 41 47 48 51 52 53 49 48 56 65 63 63 57 56
22 22 22 39 58 63 54 74 83 96 77 72 60 52 96 92 89 87 83 88 88 89 85 83 79 70 50 27 21 21 25 35 40 45 44 45 44 48 74 67 70 82 75
26 24 23 24 31 48 67 53 58 94 97 70 50 36 89 95 96 95 93 92 94 92 85 88 92 88 87 85 59 36 25 23 24 25 26 29 38 37 38 62 57 92 84
43 27 25 25 25 39 39 77 60 44 84 88 76 49 52 84 88 90 92 91 90 89 84 85 86 85 88 94 89 89 88 75 64 32 26 28 45 61 76 68 78 95 94
Wind_Speed
8 8 10 9 10 13 12 17 18 18 19 19 18 16 12 11 11 8 9 11 13 17 15 15 10 8 8 6 5 5 6 7 9 11 11 10 11 12 13 15 17 20 23
9 9 9 9 10 12 13 16 18 18 18 18 17 15 12 11 10 8 7 9 12 16 14 14 9 7 7 6 6 5 5 6 9 11 10 9 10 11 12 15 17 19 22
11 9 9 9 9 11 13 14 17 18 18 18 17 14 12 10 10 8 7 7 10 14 14 13 10 6 5 6 7 6 5 6 9 10 9 8 9 11 12 15 16 18 20
21 10 12 12 10 11 13 14 15 18 18 17 17 14 12 10 10 8 6 6 7 11 13 12 9 7 5 5 6 7 6 6 8 9 8 8 9 9 12 13 14 17 18
1 16 12 14 13 12 13 15 16 19 19 17 16 15 13 10 9 9 7 6 5 7 11 12 6 8 6 5 6 6 7 5 7 9 8 7 7 8 11 11 12 14 16
6 4 17 14 14 13 14 14 17 19 19 18 17 15 15 12 10 9 8 6 4 6 9 12 6 8 7 6 7 6 7 5 6 7 7 6 5 7 9 10 9 12 13
6 12 14 19 17 16 15 17 18 18 18 17 16 16 15 14 12 10 9 7 5 4 6 10 7 5 5 6 7 7 6 6 5 5 5 4 4 5 6 8 8 8 11
4 7 11 19 16 16 16 18 17 19 18 17 17 17 16 15 14 12 11 9 6 2 3 7 8 3 4 3 7 8 6 6 5 5 3 2 2 3 4 6 6 7 8
6 6 6 6 13 14 21 18 19 20 20 19 19 18 17 16 15 13 12 11 8 5 1 4 7 3 3 3 4 6 9 6 5 4 3 1 1 2 3 4 5 6 6
7 10 10 12 10 13 19 18 21 21 21 21 21 20 19 18 16 15 14 13 10 8 4 1 3 5 2 3 4 4 8 8 7 5 3 2 1 2 4 4 4 5 6
13 16 11 11 18 13 13 17 21 22 23 22 22 22 21 20 18 17 16 14 12 10 7 4 2 1 3 1 3 5 6 9 9 7 5 4 3 3 4 6 6 6 7
18 19 20 17 14 23 17 17 15 19 22 24 25 24 23 21 20 19 18 16 15 13 10 8 4 2 1 0 3 5 6 8 9 10 8 7 6 4 4 7 8 8 9
23 24 22 23 22 22 24 24 18 17 20 24 25 26 25 23 22 20 19 18 17 15 14 11 8 4 4 2 2 4 6 8 10 11 11 10 9 7 6 7 9 10 10
27 28 27 24 24 25 24 23 31 26 17 21 25 26 26 25 23 21 20 20 19 18 18 16 13 8 7 5 4 3 5 8 9 12 13 12 12 11 9 8 9 11 13
35 32 31 29 26 26 29 26 28 29 29 22 22 26 26 26 24 22 20 20 21 20 20 19 16 13 9 8 6 6 5 7 9 11 13 14 14 14 13 12 10 11 13
34 34 34 35 33 31 34 32 29 29 26 27 25 23 24 26 24 22 22 21 22 22 22 22 20 16 12 11 9 8 7 7 8 11 12 15 17 17 16 15 14 14 14
37 33 35 40 35 33 36 36 35 33 34 32 34 26 25 26 24 23 21 21 23 23 24 24 23 19 16 14 12 10 10 8 8 11 12 13 16 19 19 19 18 17 16
38 30 36 27 33 33 38 34 37 36 35 37 38 38 37 31 26 25 31 24 26 24 25 26 25 23 20 18 16 13 12 12 10 11 12 12 14 17 20 21 21 21 20
35 33 34 33 36 37 36 39 38 36 37 34 38 37 39 38 34 31 30 29 28 27 26 27 27 26 24 22 20 18 15 14 14 13 14 13 14 15 17 20 23 24 24
40 39 38 37 37 26 33 36 38 40 36 34 34 37 36 36 36 33 32 28 26 26 26 27 28 29 28 26 24 21 19 17 16 15 16 16 15 15 16 18 20 23 26
44 41 42 41 41 37 31 34 37 36 44 40 37 37 38 34 35 38 36 29 27 25 25 22 26 30 30 28 28 26 24 22 21 19 18 18 17 17 17 18 19 20 22
50 48 47 45 42 41 37 38 41 41 37 40 31 40 42 43 35 34 34 31 29 26 26 27 28 29 30 31 31 30 29 28 26 24 23 22 22 19 21 25 24 22 21
57 55 53 49 46 47 43 43 41 44 44 42 32 43 35 40 38 38 35 33 31 28 27 25 26 27 30 32 34 33 33 31 30 28 28 27 28 26 28 27 30 28 27
64 61 58 55 52 50 49 47 44 44 41 35 34 33 31 41 41 41 40 37 36 32 29 30 29 28 28 31 33 34 35 35 34 34 33 31 29 31 33 31 30 32 34
70 69 66 62 59 56 53 53 49 49 43 42 38 31 34 39 27 43 41 39 35 35 36 35 32 32 31 33 33 34 34 37 37 38 37 35 33 35 34 36 35 35 36
74 74 73 70 66 62 59 56 55 51 52 43 45 36 32 37 35 36 32 35 42 41 41 40 39 40 39 39 35 35 38 39 41 41 39 41 38 40 41 42 40 41 39
Wind_Direction
219 190 158 150 174 185 189 184 180 181 170 165 162 161 158 148 132 122 100 84 63 52 49 55 70 84 80 95 115 99 71 52 52 50 51 64 69 63 68 77 72 79 76
221 208 182 165 162 186 191 192 187 187 181 170 169 169 167 155 141 131 105 84 69 51 43 53 65 94 84 100 118 103 90 69 59 53 56 62 78 75 80 86 80 84 81
201 200 191 183 181 177 193 198 193 192 188 177 174 170 168 161 147 143 127 95 74 61 40 40 55 93 103 114 124 112 108 80 72 60 62 76 84 79 86 90 85 85 86
190 200 196 184 204 193 193 200 202 204 198 186 179 176 174 171 160 154 143 116 81 67 49 34 50 106 117 115 129 121 115 94 83 68 64 78 88 88 88 93 88 86 90
343 194 206 191 195 206 206 203 210 212 205 194 186 185 180 182 173 165 167 141 100 67 54 35 44 118 124 128 142 133 120 102 85 77 67 78 92 95 94 98 94 91 92
319 310 193 213 202 206 211 213 216 217 214 203 193 193 189 191 188 175 183 166 125 72 50 45 36 132 128 141 154 145 127 118 92 82 72 76 91 102 99 102 103 96 103
209 230 192 196 205 203 213 213 215 220 215 213 204 201 200 196 197 185 197 183 157 103 46 46 59 129 123 137 160 154 150 130 109 92 74 78 99 113 114 111 122 108 115
276 288 248 191 201 209 215 213 215 218 220 216 217 214 210 207 199 193 200 201 174 156 66 53 52 122 130 141 160 164 170 156 132 118 90 71 109 126 135 130 139 137 125
280 253 175 175 205 219 216 210 215 214 218 217 220 220 219 214 208 203 211 208 193 185 194 62 53 80 155 166 177 176 180 182 161 147 135 79 137 162 164 165 158 167 152
249 222 227 194 188 215 218 218 218 214 215 216 220 220 221 218 215 211 217 216 206 203 213 122 57 42 137 187 176 201 196 196 188 183 185 185 229 211 194 203 196 196 197
232 234 230 230 201 197 216 221 222 217 216 216 219 220 219 220 219 221 222 222 218 214 221 221 178 66 47 228 222 204 214 213 206 205 211 225 233 243 224 217 221 223 228
236 241 239 233 230 210 206 212 233 230 225 220 220 221 220 219 221 222 225 223 221 222 225 238 228 211 197 320 245 245 228 224 224 221 216 230 238 252 245 236 234 232 239
237 226 231 235 240 236 223 206 216 227 230 228 226 224 223 222 222 217 223 226 224 222 230 239 239 224 248 237 264 261 254 248 229 229 231 228 241 246 255 250 246 243 241
239 235 232 235 236 241 244 236 225 228 237 233 229 228 227 224 224 222 221 224 224 222 228 232 241 235 243 252 264 274 272 258 253 235 234 239 241 250 254 255 251 254 253
229 232 233 237 236 236 242 242 231 226 225 242 237 232 229 226 224 223 223 226 229 224 227 232 233 237 238 252 256 267 276 278 265 257 245 241 246 250 257 262 263 256 258
233 234 234 236 236 233 236 239 236 224 218 228 233 233 236 232 228 228 226 227 231 229 228 231 236 236 237 248 254 256 261 275 275 266 257 252 250 253 255 262 267 269 262
239 242 246 240 238 236 237 239 238 233 227 224 230 238 237 238 232 236 237 231 233 231 232 230 237 237 236 243 250 261 265 267 278 278 267 262 260 257 256 259 263 268 273
248 257 251 241 240 239 234 234 242 237 232 228 231 236 238 239 236 229 237 244 240 234 233 231 233 236 237 239 245 250 261 270 273 277 278 275 273 269 266 264 264 266 269
241 249 257 258 250 233 237 234 234 242 241 238 233 234 236 237 232 235 240 236 233 231 232 234 234 236 237 239 243 249 254 264 274 280 281 280 280 284 282 277 272 269 269
237 242 247 252 258 227 229 236 238 235 245 239 245 247 245 238 236 228 225 231 236 235 235 236 236 238 240 242 245 250 255 261 268 278 284 285 285 286 289 288 283 278 274
239 239 240 245 253 259 248 242 246 229 240 248 245 249 250 250 247 245 227 225 232 235 236 243 245 242 242 246 249 251 254 258 264 269 275 279 281 283 286 290 292 290 287
240 241 243 245 247 253 254 247 245 245 254 232 244 249 246 253 243 239 241 238 236 240 243 239 239 242 244 247 250 252 254 257 259 263 268 272 272 274 284 288 288 291 290
243 241 242 243 245 248 248 252 247 247 247 249 254 253 227 228 231 238 235 236 237 238 240 242 244 244 245 248 251 253 255 255 259 260 263 266 269 270 278 279 283 287 290
242 243 243 242 242 244 247 248 249 252 252 251 254 252 248 221 232 229 236 234 240 241 242 246 248 250 252 252 253 253 255 257 258 259 262 263 266 271 267 277 279 282 281
238 241 242 242 243 242 245 248 249 252 250 248 250 248 236 235 253 226 233 238 240 245 246 248 250 251 251 253 254 258 262 261 261 262 262 259 260 263 265 270 270 278 272
237 237 240 241 241 241 242 244 247 249 243 246 241 244 241 241 244 249 251 247 250 249 253 256 256 257 258 254 252 254 260 259 260 260 260 261 266 271 274 270 274 276 276